Wind_Speed
20 21 21 21 21 20 21 22 20 19 17 17 17 16 15 14 13 13 13 13 12 12 12 11 10 10 9 9 8 7 8 8 8 8 8 8 8 9 9 9 9 9 9 9 9 8 8 7 7
18 19 21 21 22 20 21 21 19 19 18 18 17 16 15 14 14 14 13 13 12 12 12 12 11 10 9 8 7 8 8 8 8 8 8 8 7 8 8 8 9 9 9 9 8 8 7 7 6
17 18 20 22 21 21 22 21 20 19 19 18 17 16 15 15 14 14 13 13 13 12 12 11 11 9 9 8 7 7 6 7 8 7 7 7 7 7 7 8 9 9 9 8 7 7 8 7 7
15 18 20 21 21 22 22 21 20 19 18 18 17 16 15 15 15 14 13 13 13 13 12 12 11 10 9 9 7 7 6 6 6 7 6 7 8 7 7 8 9 8 8 8 8 7 7 7 7
14 16 20 21 21 21 21 21 20 19 18 18 18 17 16 16 15 14 13 13 13 12 12 12 11 11 10 8 7 7 7 7 7 7 7 7 7 8 8 8 8 8 9 9 8 7 7 8 8
12 14 18 20 20 20 20 20 18 17 17 18 17 17 16 16 15 15 14 13 13 12 12 12 11 11 10 9 8 7 7 7 7 7 7 7 7 8 9 9 9 9 8 7 8 7 8 8 8
13 13 16 18 18 18 19 19 18 17 17 17 17 17 17 16 15 15 14 14 13 12 12 12 11 12 11 10 9 8 7 7 7 6 6 7 7 7 8 8 8 8 8 7 7 7 7 7 7
11 12 14 16 16 17 18 18 18 18 17 17 18 17 16 16 15 14 14 14 13 12 11 11 12 12 11 10 10 8 8 7 6 6 5 6 7 7 7 7 7 7 7 7 7 7 7 7 6
9 10 12 14 14 16 17 18 18 18 18 18 18 17 16 16 15 14 14 14 13 12 12 12 12 11 11 10 10 9 7 7 7 6 6 6 6 7 6 6 6 7 7 7 7 7 6 6 6
8 7 11 12 12 15 16 17 18 19 18 18 18 17 16 15 15 14 14 14 13 12 12 11 11 11 10 10 9 9 8 7 6 6 6 6 6 6 6 6 6 6 6 5 5 5 5 5 4
6 7 10 11 11 13 14 17 18 19 18 17 17 17 17 16 15 15 14 14 13 12 12 11 11 10 10 9 9 8 8 7 6 6 6 6 6 6 6 6 6 5 5 4 4 4 4 4 4
5 6 9 11 12 13 14 15 16 17 17 17 17 16 16 17 16 15 15 14 14 13 12 12 11 11 10 9 8 8 8 7 7 7 7 7 6 6 6 5 5 5 5 5 5 4 3 3 3
3 4 6 9 11 13 13 14 15 15 16 16 16 16 16 16 16 15 15 15 15 14 13 12 11 10 10 10 9 9 8 8 7 6 6 6 5 5 5 5 5 5 4 4 4 4 3 3 3
3 1 3 6 9 11 12 13 13 14 15 16 15 15 15 15 16 15 15 15 14 13 13 12 11 11 10 10 9 9 8 8 7 7 6 6 5 5 5 5 5 4 4 3 3 3 4 3 3
5 3 1 3 6 9 11 12 12 13 14 15 15 14 14 15 15 15 15 15 14 14 12 12 12 12 11 10 9 9 8 8 8 7 7 6 5 4 4 4 3 3 3 3 3 3 3 3 2
7 6 4 4 5 7 10 11 11 11 13 13 14 14 14 13 14 14 14 13 13 14 13 12 11 11 11 11 10 10 9 8 7 7 7 6 5 4 4 4 4 4 3 3 3 3 2 2 2
8 7 5 5 6 7 8 10 10 11 12 12 13 13 13 13 12 12 13 13 13 13 13 13 11 11 11 11 10 10 9 8 7 7 7 6 5 5 4 3 3 3 3 3 3 3 3 2 2
8 8 6 7 8 8 8 8 9 10 10 11 11 11 12 12 11 11 12 12 12 12 13 13 12 12 12 10 10 10 9 8 8 7 7 6 5 5 5 4 3 3 3 3 3 3 3 2 2
11 10 9 9 11 11 9 8 8 9 10 10 10 10 11 11 11 11 11 11 12 12 12 12 12 11 11 11 10 10 10 9 8 7 6 6 5 5 4 4 3 3 3 3 3 3 3 2 1
15 13 11 11 12 11 10 9 7 8 9 9 10 10 10 10 10 10 10 11 11 11 11 11 11 11 12 11 9 9 9 8 7 6 5 5 5 5 5 4 3 3 3 3 3 3 3 3 2
19 17 15 13 12 12 13 11 9 8 10 8 9 10 9 9 9 8 9 10 10 10 10 10 10 10 11 10 9 8 7 7 6 5 5 5 5 4 4 4 4 4 4 3 3 3 3 3 2
21 19 18 16 15 15 14 11 9 10 9 9 9 9 9 8 7 7 7 8 9 10 10 10 9 9 9 9 8 8 7 7 6 5 5 5 5 4 4 5 5 5 5 3 3 3 3 3 3
22 20 20 18 17 15 15 14 12 12 12 11 9 9 8 8 7 7 6 7 8 9 9 9 9 9 8 7 7 7 7 7 6 5 5 5 5 5 5 5 5 5 5 4 4 4 4 5 5
23 22 22 22 20 17 16 16 14 12 12 11 9 10 9 9 7 7 6 6 6 7 8 8 9 9 8 7 7 6 6 6 6 5 5 5 5 5 5 5 6 5 5 5 5 6 6 6 6
26 25 25 25 23 19 17 17 14 12 12 11 11 11 10 10 8 7 7 6 6 7 7 8 8 8 8 7 7 6 6 6 6 6 6 6 6 5 5 6 6 6 6 6 6 7 7 8 8
27 27 26 25 22 20 19 18 15 13 14 14 13 12 11 10 9 7 7 7 7 7 7 7 8 8 8 8 8 7 8 7 7 7 7 7 7 7 6 7 7 7 7 7 7 8 9 9 9
27 27 26 25 23 22 21 19 17 16 16 15 14 13 12 12 11 9 9 9 8 8 8 8 8 8 8 8 9 9 9 9 8 9 8 8 8 8 8 8 9 8 8 9 9 9 9 9 9
27 27 27 26 24 24 22 20 19 18 15 14 13 13 14 14 12 11 11 10 10 9 9 8 8 8 9 9 9 9 10 10 10 10 10 10 10 10 10 10 9 9 9 9 10 10 10 9 9
29 29 29 28 26 25 23 22 21 20 18 17 15 15 16 15 14 12 11 11 10 10 9 9 9 9 10 10 10 10 10 10 11 11 12 12 12 12 12 12 11 10 10 10 10 11 11 10 10
29 29 30 30 28 27 26 24 22 21 19 17 17 17 17 15 14 12 12 12 11 10 10 11 10 10 11 11 11 11 11 11 11 12 12 13 13 13 13 13 12 11 11 10 11 12 12 11 12
Wind_Direction
62 57 51 49 48 48 49 50 50 49 49 49 48 50 53 54 56 59 61 60 60 62 67 69 67 67 69 73 80 89 94 92 93 99 103 102 102 99 100 102 102 110 117 114 115 115 115 109 107
65 59 51 47 47 46 47 48 48 48 48 49 47 48 50 53 54 58 59 57 57 58 62 67 68 68 66 70 80 90 90 91 95 96 96 96 104 105 101 101 106 114 118 116 114 114 114 107 104
64 59 51 45 45 45 47 47 45 46 47 48 45 45 49 52 52 55 55 54 53 54 56 59 62 66 67 70 71 73 88 94 94 92 93 94 94 97 103 102 106 111 116 116 114 116 109 101 100
63 58 53 46 42 44 46 45 44 45 46 48 46 45 48 51 52 53 53 52 53 54 56 57 58 61 63 64 63 63 76 89 95 87 87 92 91 94 102 105 105 109 113 109 110 112 104 102 100
56 52 49 44 42 43 44 45 44 43 42 47 47 46 47 49 50 53 54 53 54 56 57 56 55 57 59 59 61 65 76 90 93 93 93 91 91 93 99 105 101 100 102 104 104 101 101 106 102
57 50 49 44 42 41 42 43 44 42 40 45 47 46 46 50 51 50 51 53 54 57 59 58 56 56 57 58 59 70 80 87 95 99 96 94 95 96 101 103 100 100 105 100 97 102 106 102 100
56 52 44 42 39 38 41 41 41 41 39 41 45 46 46 47 49 49 50 52 53 55 59 59 57 56 55 57 61 73 76 79 85 89 88 85 92 98 104 104 104 103 99 96 97 99 100 103 103
54 48 41 39 35 39 39 38 41 43 40 40 42 45 46 46 48 50 49 51 52 52 56 58 59 57 55 54 62 71 73 76 80 85 88 91 92 98 102 104 100 102 100 98 97 102 103 102 103
51 41 39 36 34 37 37 38 41 43 39 40 41 43 45 45 47 49 50 50 51 53 54 57 58 56 54 53 59 69 76 80 81 82 90 95 96 101 104 102 97 97 96 96 97 98 97 96 95
52 40 39 38 36 37 38 39 42 42 37 38 39 41 41 44 46 49 51 50 51 53 52 54 55 54 52 49 51 62 71 77 77 78 84 91 94 101 102 100 98 94 93 95 97 97 97 93 94
63 48 41 39 37 39 40 40 41 40 38 38 38 40 41 43 45 48 50 50 50 51 51 51 51 52 51 48 48 54 64 73 80 80 79 81 88 95 92 93 90 86 87 95 100 104 99 94 92
70 52 44 38 30 33 34 35 36 37 36 37 38 38 40 42 44 47 49 50 50 51 53 52 51 51 51 51 52 55 60 71 78 78 78 82 85 88 88 87 87 88 91 97 95 92 98 98 90
93 44 39 32 24 24 26 28 29 32 32 34 36 38 40 40 43 46 48 49 48 49 51 53 53 50 53 55 56 57 60 68 73 78 83 90 95 95 92 89 87 86 95 97 91 84 88 94 93
145 79 28 20 19 16 18 21 24 26 29 31 33 36 39 39 41 44 47 47 47 47 48 51 50 50 53 56 59 62 64 69 73 80 84 88 97 98 92 93 87 86 93 94 87 76 80 89 99
176 194 286 349 7 3 4 14 20 23 30 29 31 34 35 38 40 42 44 44 44 45 47 48 47 46 50 53 60 65 69 71 72 78 84 83 88 95 88 87 88 89 95 87 69 67 73 72 84
196 210 244 291 332 347 355 5 12 21 24 26 27 32 32 35 37 40 41 41 41 40 42 47 46 47 49 53 59 63 65 65 69 76 79 74 72 80 84 86 84 77 76 66 49 49 58 51 48
199 207 238 279 298 315 337 350 2 13 14 19 23 28 29 30 33 37 38 39 40 38 38 42 44 44 46 50 53 55 56 57 70 74 69 65 67 75 77 79 75 62 45 36 44 38 32 31 32
201 209 232 261 277 290 312 330 345 1 10 14 20 23 26 28 30 35 36 37 36 35 38 38 41 44 48 52 53 53 53 59 66 69 66 65 64 69 71 74 68 51 31 17 22 16 10 10 13
204 208 230 248 264 273 294 311 324 346 353 4 14 17 20 23 26 31 33 34 34 32 34 36 37 39 43 47 50 53 54 57 59 58 59 62 62 66 65 57 50 38 19 3 355 359 348 343 340
209 212 227 239 255 266 278 288 302 318 332 354 8 9 12 16 17 25 26 29 30 30 29 32 34 37 39 41 46 48 48 51 53 54 60 64 60 56 47 34 14 8 358 345 341 336 336 336 330
215 216 220 234 246 259 268 269 282 298 314 330 355 358 1 4 7 13 17 22 24 25 26 27 30 33 35 34 38 42 44 43 47 51 53 51 44 37 29 21 9 359 351 348 347 338 342 335 332
218 219 223 230 240 251 260 261 270 281 293 313 330 338 344 352 356 358 6 14 17 20 22 22 23 25 28 29 32 35 35 33 35 38 36 30 29 27 12 7 5 5 6 3 357 359 351 339 337
219 221 226 231 236 244 250 258 262 274 286 300 309 322 328 336 342 342 352 4 8 11 15 17 17 16 17 18 20 23 25 25 23 23 21 18 17 15 4 357 356 358 3 359 348 345 346 339 326
220 222 224 228 233 235 243 254 257 273 286 292 297 303 310 320 330 332 336 346 349 351 358 3 3 5 7 9 9 9 9 7 7 5 359 357 351 349 352 348 343 339 340 338 334 328 326 326 322
219 221 222 225 229 233 239 248 259 270 274 281 285 290 297 309 316 322 324 328 331 333 341 348 350 351 354 358 359 356 351 349 348 347 348 346 339 329 330 331 328 322 315 314 315 314 315 317 316
219 222 225 228 228 235 240 247 257 266 267 269 275 285 293 302 303 308 307 314 319 320 327 333 338 341 343 345 345 343 339 338 336 334 336 335 332 324 317 317 317 315 308 301 301 302 305 308 310
219 222 225 230 234 236 239 247 253 259 265 266 269 274 287 297 296 293 295 300 301 300 306 315 321 326 329 329 331 332 334 335 334 329 324 321 320 317 308 307 309 307 304 300 298 295 296 301 309
221 222 224 228 232 234 238 245 251 257 260 261 262 272 282 290 292 286 288 289 290 289 292 297 304 311 317 318 318 322 327 330 328 324 317 314 311 306 304 302 306 304 301 299 300 294 290 296 306
222 222 225 229 232 235 239 242 248 256 259 257 262 270 278 281 284 285 283 283 282 281 283 286 291 300 306 308 311 315 319 321 321 320 316 309 307 304 300 298 299 295 295 296 297 299 295 296 302
224 225 227 229 231 234 240 243 247 253 257 258 258 265 271 272 277 279 279 273 274 275 282 284 284 291 298 302 305 305 307 312 316 317 313 309 304 300 299 297 296 293 296 299 300 299 303 301 305
Height
5913 5912 5912 5911 5910 5908 5906 5905 5904 5903 5901 5899 5898 5897 5896 5895 5895 5895 5891 5890 5889 5888 5886 5886 5885 5884 5884 5883 5883 5883 5883 5883 5882 5882 5882 5881 5881 5881 5881 5881 5881 5881 5881 5881 5881 5882 5882 5883 5883
5916 5915 5915 5913 5911 5909 5908 5907 5906 5905 5903 5901 5900 5899 5898 5896 5895 5894 5892 5891 5890 5889 5888 5887 5886 5886 5885 5885 5884 5884 5884 5884 5884 5883 5883 5883 5883 5882 5882 5882 5882 5882 5882 5883 5883 5883 5883 5884 5884
5918 5917 5917 5915 5913 5912 5911 5909 5908 5907 5905 5904 5903 5902 5900 5899 5897 5895 5894 5893 5892 5891 5890 5889 5888 5888 5887 5886 5886 5886 5886 5885 5885 5885 5885 5884 5884 5884 5884 5883 5883 5883 5884 5884 5884 5884 5885 5885 5885
5921 5920 5919 5917 5915 5914 5913 5912 5911 5909 5908 5906 5905 5904 5902 5900 5898 5897 5896 5894 5893 5893 5892 5891 5890 5889 5889 5888 5887 5887 5887 5887 5886 5886 5886 5886 5885 5885 5885 5885 5885 5885 5885 5885 5886 5886 5886 5886 5886
5923 5922 5920 5918 5917 5917 5915 5914 5913 5912 5910 5908 5907 5906 5904 5902 5900 5899 5897 5896 5895 5894 5893 5892 5892 5891 5890 5889 5889 5888 5888 5888 5888 5887 5887 5887 5887 5887 5886 5887 5886 5886 5886 5887 5888 5888 5887 5888 5888
5926 5924 5922 5921 5920 5919 5918 5917 5916 5915 5913 5911 5909 5908 5906 5904 5902 5900 5899 5898 5897 5896 5895 5894 5893 5892 5891 5891 5890 5889 5889 5889 5889 5889 5888 5889 5889 5888 5888 5888 5888 5888 5888 5888 5889 5889 5889 5889 5889
5927 5926 5924 5923 5922 5921 5921 5920 5918 5917 5915 5913 5911 5910 5908 5906 5905 5903 5901 5900 5899 5898 5897 5896 5895 5894 5893 5892 5891 5890 5890 5890 5890 5890 5890 5890 5890 5889 5889 5889 5889 5889 5889 5890 5890 5890 5890 5890 5890
5928 5928 5926 5925 5924 5923 5923 5922 5920 5918 5917 5915 5913 5912 5910 5909 5907 5905 5903 5902 5901 5900 5899 5898 5897 5896 5895 5894 5892 5892 5892 5891 5891 5891 5891 5891 5891 5891 5891 5891 5891 5891 5891 5891 5891 5892 5891 5891 5891
5930 5931 5928 5928 5927 5925 5925 5924 5923 5920 5919 5917 5915 5914 5912 5911 5909 5907 5906 5904 5903 5901 5900 5899 5898 5898 5897 5896 5894 5893 5893 5892 5892 5892 5892 5892 5892 5892 5892 5892 5892 5892 5892 5893 5893 5893 5892 5892 5892
5932 5931 5930 5930 5929 5928 5927 5926 5924 5922 5921 5919 5917 5916 5914 5912 5911 5909 5908 5906 5904 5903 5902 5900 5900 5899 5898 5897 5896 5895 5894 5894 5893 5893 5893 5893 5893 5893 5894 5894 5894 5894 5894 5894 5894 5894 5894 5893 5893
5932 5932 5932 5932 5931 5930 5929 5928 5926 5925 5923 5922 5920 5918 5916 5914 5913 5911 5910 5908 5907 5906 5904 5903 5901 5901 5900 5899 5898 5896 5896 5895 5895 5895 5895 5895 5895 5895 5895 5895 5895 5895 5895 5895 5895 5895 5895 5894 5894
5933 5933 5933 5933 5932 5932 5931 5930 5929 5927 5926 5924 5922 5920 5918 5916 5915 5913 5912 5910 5909 5908 5906 5905 5903 5902 5901 5900 5899 5898 5897 5896 5896 5896 5896 5896 5896 5896 5896 5896 5896 5896 5896 5896 5896 5896 5895 5895 5895
5934 5934 5934 5934 5933 5933 5932 5931 5931 5929 5928 5926 5924 5922 5920 5919 5917 5915 5914 5912 5910 5909 5908 5906 5905 5904 5903 5902 5901 5900 5899 5898 5898 5897 5897 5897 5897 5897 5897 5897 5897 5897 5897 5897 5896 5896 5896 5896 5896
5934 5934 5934 5934 5934 5934 5934 5934 5933 5931 5929 5928 5926 5924 5923 5921 5919 5918 5916 5914 5912 5910 5909 5907 5906 5905 5904 5903 5902 5901 5900 5899 5899 5899 5899 5898 5898 5898 5898 5898 5898 5898 5897 5897 5897 5897 5897 5897 5896
5934 5935 5935 5935 5935 5935 5936 5935 5934 5933 5931 5930 5928 5927 5925 5923 5921 5920 5918 5916 5914 5912 5910 5909 5907 5906 5905 5904 5903 5902 5902 5901 5900 5900 5900 5900 5899 5899 5899 5899 5899 5898 5898 5898 5898 5897 5897 5897 5896
5935 5935 5935 5935 5935 5936 5937 5936 5935 5933 5932 5931 5930 5929 5927 5925 5923 5921 5919 5917 5916 5914 5912 5910 5909 5908 5906 5905 5904 5903 5903 5902 5902 5901 5901 5901 5900 5900 5899 5899 5899 5899 5899 5898 5898 5898 5897 5897 5896
5935 5935 5935 5935 5935 5936 5937 5936 5936 5934 5933 5932 5931 5930 5929 5927 5925 5923 5921 5919 5918 5916 5914 5912 5910 5909 5907 5906 5905 5904 5904 5903 5902 5902 5902 5901 5901 5900 5900 5900 5900 5899 5899 5899 5898 5898 5897 5896 5896
5934 5934 5934 5935 5935 5935 5936 5936 5935 5934 5934 5933 5932 5931 5930 5928 5926 5924 5923 5921 5919 5917 5915 5914 5912 5910 5908 5907 5906 5906 5905 5904 5904 5903 5903 5902 5902 5901 5901 5900 5900 5900 5899 5899 5898 5898 5897 5896 5896
5932 5932 5933 5933 5933 5934 5935 5935 5934 5934 5934 5933 5932 5931 5930 5929 5927 5926 5924 5922 5921 5919 5917 5916 5914 5912 5910 5909 5908 5907 5906 5906 5905 5904 5903 5903 5902 5901 5901 5901 5900 5900 5899 5898 5898 5897 5897 5896 5895
5929 5930 5931 5932 5933 5933 5933 5934 5933 5933 5933 5933 5932 5931 5930 5929 5928 5927 5925 5924 5922 5920 5918 5917 5915 5913 5912 5910 5909 5908 5907 5907 5906 5905 5904 5903 5903 5902 5901 5901 5900 5900 5899 5898 5897 5897 5896 5895 5894
5926 5928 5929 5930 5931 5931 5932 5932 5932 5932 5932 5932 5932 5931 5931 5930 5929 5928 5926 5924 5923 5921 5920 5918 5916 5915 5913 5912 5911 5909 5908 5908 5907 5906 5905 5904 5903 5902 5902 5901 5900 5899 5898 5898 5897 5896 5895 5894 5894
5923 5925 5926 5927 5928 5929 5930 5930 5930 5929 5930 5930 5930 5931 5930 5929 5929 5928 5927 5925 5924 5922 5921 5919 5917 5916 5915 5913 5912 5911 5909 5908 5907 5906 5906 5905 5903 5902 5902 5901 5900 5899 5898 5897 5896 5896 5894 5894 5893
5920 5922 5923 5924 5925 5927 5927 5928 5929 5928 5928 5928 5929 5929 5929 5929 5928 5928 5927 5925 5924 5923 5921 5920 5918 5917 5915 5914 5913 5911 5910 5909 5908 5907 5906 5905 5904 5902 5901 5900 5899 5899 5898 5897 5896 5895 5894 5893 5892
5916 5918 5919 5919 5921 5923 5925 5925 5926 5927 5927 5926 5927 5927 5927 5928 5928 5927 5926 5925 5924 5923 5922 5920 5919 5917 5915 5914 5913 5911 5910 5909 5908 5907 5906 5904 5903 5902 5901 5900 5899 5898 5897 5896 5895 5894 5893 5891 5891
5910 5913 5915 5916 5917 5919 5921 5921 5924 5924 5925 5925 5924 5925 5925 5926 5926 5925 5925 5924 5923 5923 5922 5920 5919 5917 5915 5914 5912 5911 5910 5909 5907 5906 5905 5904 5902 5901 5900 5899 5898 5896 5895 5894 5893 5892 5891 5890 5889
5905 5908 5911 5913 5914 5917 5918 5918 5921 5921 5922 5922 5922 5923 5923 5924 5924 5923 5923 5923 5922 5921 5920 5919 5918 5916 5915 5913 5912 5911 5909 5908 5906 5905 5904 5902 5901 5900 5899 5897 5896 5895 5893 5892 5891 5890 5889 5888 5886
5900 5903 5906 5909 5911 5912 5914 5915 5917 5917 5918 5919 5919 5920 5921 5921 5921 5921 5921 5921 5920 5920 5919 5918 5916 5915 5914 5912 5911 5909 5908 5906 5905 5904 5902 5901 5900 5898 5897 5895 5894 5892 5891 5890 5889 5888 5887 5885 5884
5896 5899 5901 5904 5906 5907 5910 5911 5913 5914 5915 5916 5916 5917 5918 5918 5918 5918 5918 5919 5918 5918 5917 5916 5914 5913 5912 5911 5909 5908 5907 5905 5903 5902 5900 5899 5898 5896 5895 5893 5892 5890 5889 5887 5886 5885 5883 5882 5881
5890 5893 5895 5899 5901 5904 5905 5909 5909 5910 5911 5911 5912 5913 5914 5915 5915 5915 5915 5915 5915 5915 5914 5913 5912 5911 5910 5909 5907 5906 5905 5903 5901 5900 5898 5896 5895 5893 5892 5891 5889 5888 5886 5885 5883 5882 5881 5880 5879
5884 5888 5891 5894 5897 5899 5901 5906 5905 5905 5905 5906 5908 5910 5910 5911 5911 5911 5911 5911 5911 5911 5911 5910 5909 5909 5908 5906 5905 5903 5902 5900 5899 5897 5895 5894 5892 5891 5889 5888 5887 5885 5884 5882 5881 5880 5878 5877 5875